Location: Oriwa
(40.7500°S, 175.3333°E)
Time: 12:49:58
(UTC+00:00)

Cosmos 1697 Rocket - Pass Details

Date: 03 February 2023
Orbit: 834 x 841 km, 71.0° (Epoch: 30 March)

Event Time Altitude Azimuth Distance (km) Brightness Sun altitude
Exits shadow 16:10:47 11° 347° (NNW) 2,403 4.6 -13.7°
Maximum altitude 16:16:15 72° 69° (ENE) 887 2.9 -12.8°
Drops below altitude 10° 16:21:55 10° 152° (SSE) 2,480 6.2 -11.9°
Sets 16:24:24 0° 154° (SSE) 3,422 7.0 -11.6°
